Location: Hausen
(48.7894°N, 8.8384°E)
Time: 22:50:13
(UTC+00:00)

Daily predictions for brighter satellites

Satellite Brightness Start Highest point End
(mag) Time Altitude Azimuth Time Altitude Azimuth Time Altitude Azimuth
Cosmos 1726 Rocket 3.7 15:59:04 10° S 16:03:31 88° W 16:07:58 10° N
CZ-2D R/B 3.2 16:00:53 10° SSE 16:04:29 56° ENE 16:08:05 10° N
Cosmos 1812 4.1 16:07:09 10° SE 16:09:40 18° E 16:12:12 10° NE
YAOGAN 11 4.5 16:10:16 10° NNE 16:14:42 48° E 16:19:05 10° S
USA 276 2.7 16:12:47 10° SW 16:14:57 30° SSE 16:17:11 10° E
CZ-2C R/B 2.6 16:12:31 10° SSE 16:16:02 59° ENE 16:19:36 10° N
Cosmos 2263 Rocket 2.3 16:11:19 10° S 16:16:46 60° ESE 16:22:16 10° NE
Cosmos 1437 Rocket 2.9 16:13:15 10° NNW 16:16:59 76° W 16:20:44 10° S
Cosmos 1844 Rocket 4.3 16:14:57 10° SE 16:17:37 14° E 16:20:19 10° ENE
Nadezhda 4 Rocket 4.4 16:15:06 10° SSE 16:20:44 39° E 16:26:21 10° NNE
CORIOLIS 4.2 16:15:42 10° SE 16:20:55 56° ENE 16:26:12 10° N
ERS-2 2.3 16:19:36 10° S 16:22:29 57° WSW 16:25:23 10° NNW
USA 307 2.7 16:20:20 10° WNW 16:24:12 79° SSW 16:28:01 10° SE
Cosmos 2227 Rocket 3.0 16:19:31 10° SW 16:24:59 48° NW 16:30:29 10° NNE
Cosmos 44 4.2 16:21:47 10° NW 16:27:06 60° WSW 16:32:09 10° SSE
Meteor 1-20 Rocket 4.5 16:21:50 10° N 16:27:10 44° ENE 16:32:33 10° SE
Cosmos 1140 Rocket 3.6 16:22:39 10° NNW 16:27:44 51° ENE 16:32:44 10° SE
SAR-Lupe-2 3.7 16:26:09 10° S 16:29:43 77° WSW 16:33:20 10° NNW
YAOGAN 1 4.4 16:29:59 12° NE 16:29:59 12° NE 16:31:26 10° NNE
ARGOS 4.5 16:28:27 10° S 16:33:36 44° W 16:38:49 10° NNW
Cosmos 1666 2.4 16:30:40 10° N 16:34:13 78° E 16:37:45 10° SSE
NOSS 8 (A) 4.4 16:33:12 10° SW 16:36:55 75° NW 16:39:22 15° NE
Cosmos 1603 3.8 16:32:10 10° NNW 16:37:44 52° NE 16:43:14 10° SE
DMSP B5D2-2 4.0 16:33:32 10° NNE 16:38:46 74° ESE 16:43:58 10° S
Cosmos 1076 Rocket 4.1 16:37:09 10° NNW 16:41:29 63° W 16:45:45 10° S
Meteor 1-31 Rocket 2.5 16:39:16 10° SSE 16:42:56 70° ENE 16:46:39 10° N
USA 306 3.8 16:45:20 10° W 16:47:07 22° SW 16:48:51 10° SSE
SL-16 R/B 4.1 16:45:26 10° NW 16:50:28 33° WSW 16:55:28 10° SSW
ATLAS CENTAUR R/B 2.8 16:46:54 10° WNW 16:51:00 79° SW 16:59:03 10° SE
Cosmos 1602 3.7 16:49:22 10° NNW 16:53:06 78° W 16:56:50 10° S
RESURS DK-1 3.5 16:52:28 10° N 16:55:44 22° NE 16:56:12 22° NE
USA 305 3.1 16:52:09 10° WNW 16:55:55 60° SW 16:59:42 10° SE
CZ-4B R/B 3.4 16:53:52 10° SSE 16:58:51 61° ENE 17:03:43 10° N
Cosmos 1782 3.4 16:57:52 10° SSE 17:01:24 34° E 17:03:03 24° NE
Cosmos 1943 3.3 16:56:04 10° NNW 17:01:44 81° WSW 17:07:22 10° SSE
Cosmos 1812 Rocket 3.5 16:57:30 10° S 17:01:45 58° E 17:06:03 10° NNE
Helios 1A 3.2 16:58:42 14° NNE 17:02:10 47° E 17:06:09 10° S
ATLAS 2AS CENTAUR R/B 2.9 16:57:13 10° NW 17:04:00 48° NE 17:09:08 16° ESE
SMAP 3.7 17:01:01 10° S 17:05:37 60° W 17:10:15 10° NNW
NOAA 6 4.0 17:01:41 10° SSE 17:06:42 56° ENE 17:11:43 10° N
CZ-4B R/B 4.3 17:05:29 10° S 17:09:00 56° WSW 17:12:37 10° NNW
Cosmos 407 Rocket 3.4 17:07:55 10° NNW 17:13:07 87° ENE 17:18:15 10° SSE
Radarsat Rocket 3.9 17:07:29 10° SSE 17:13:13 66° ENE 17:19:20 10° NNW
Cosmos 2297 Rocket 4.4 17:10:00 10° W 17:13:47 18° NW 17:17:35 10° N
SOZ 4.4 17:13:05 10° W 17:15:19 60° N 17:16:20 37° NE
ISS -0.8 17:17:13 10° W 17:19:27 17° SW 17:21:42 10° S
Cosmos 2251 Rocket 3.7 17:15:31 10° NNW 17:20:53 79° WSW 17:26:15 10° SSE
Cosmos 220 Rocket 3.9 17:20:26 10° NNW 17:24:43 59° ENE 17:27:53 17° SE
Cosmos 2056 Rocket 4.0 17:22:37 10° S 17:27:34 39° ESE 17:28:45 35° ENE
Cosmos 1954 Rocket 4.1 17:22:33 10° NNW 17:27:43 52° ENE 17:31:27 18° SE
COSMOS 2455 4.2 17:23:48 10° SSE 17:27:03 20° ESE 17:27:03 20° ESE
Timation 2 Rocket 4.1 17:22:48 10° S 17:28:26 45° ESE 17:30:41 32° ENE
Cosmos 1844 4.1 17:23:17 10° S 17:28:41 43° ESE 17:30:24 34° ENE
CZ-4 R/B 4.2 17:26:18 10° SSE 17:30:23 81° ENE 17:34:30 10° NNW
Lacrosse 5 2.2 17:25:40 10° SSW 17:30:29 46° SE 17:31:43 38° E
Cosmos-2242 3.7 17:27:07 10° SSW 17:31:23 56° WNW 17:35:39 10° N
COSMO-SKYMED 1 2.5 17:29:30 29° NNE 17:31:38 64° ESE 17:35:57 10° S
Lacrosse 4 Rocket 2.8 17:29:22 10° NW 17:33:25 40° WSW 17:37:22 10° S
Cosmos 1833 Rocket 4.0 17:30:09 10° N 17:33:48 22° NNE 17:33:48 22° NNE
Cosmos 1553 Rocket 4.0 17:33:02 10° N 17:39:14 53° ENE 17:45:18 10° SSE
APEX 3.3 17:37:15 10° SW 17:39:57 45° WNW 17:39:57 45° WNW
USA 234 3.2 17:37:35 32° ENE 17:40:50 74° SE 17:47:22 10° SW
Meteor 2-2 Rocket 4.4 17:35:19 10° SSW 17:41:05 80° WNW 17:47:01 10° N
Cosmos 2221 2.9 17:37:44 10° S 17:41:02 44° SE 17:41:02 44° SE
Cosmos 2344 3.4 17:35:15 10° SW 17:42:49 83° SE 17:47:05 28° NE
Cosmos 1812 4.1 17:41:07 10° SW 17:44:32 36° WNW 17:47:41 12° N
Cosmos 1190 Rocket 4.0 17:39:52 10° NNW 17:45:13 87° WSW 17:50:31 10° SSE
Cosmos 1818 3.5 17:41:12 10° SW 17:46:39 88° NW 17:48:45 39° NE
Cosmos 2026 Rocket 3.9 17:41:51 10° S 17:48:07 89° ESE 17:54:31 10° N
USA 276 4.1 17:47:00 10° W 17:48:03 22° W 17:48:03 22° W
Cosmos 1371 Rocket 3.9 17:46:36 10° S 17:51:46 62° ESE 17:52:32 55° ENE
NOAA 15 4.5 17:49:14 10° SSE 17:54:29 68° ENE 17:59:45 10° N
CZ-4B R/B 4.5 18:01:43 26° NNE 18:01:43 26° NNE 18:04:27 10° N
Cosmos 1844 Rocket 2.5 17:55:01 10° SSW 18:00:35 82° ESE 18:02:02 51° NE
Cosmos 2263 Rocket 3.8 17:56:17 10° WSW 18:01:05 29° NW 18:05:03 14° N
Meteor 1-26 Rocket 4.1 17:55:51 10° S 18:01:24 80° E 18:04:18 31° NNE
Cosmos 1766 Rocket 3.5 17:59:34 10° NNW 18:03:56 79° W 18:08:15 10° S
YAOGAN 1 3.7 18:07:03 32° NNW 18:07:03 32° NNW 18:09:24 10° NNW
Cosmos 1092 Rocket 4.2 17:59:36 10° SSW 18:05:41 67° WNW 18:11:50 10° N
Cosmos 1933 4.1 18:03:07 10° SSW 18:07:00 50° WNW 18:07:55 41° NW
Cosmos 1420 Rocket 3.9 18:02:27 10° SSW 18:07:42 86° ESE 18:08:27 67° NNE
ADEOS 3.9 18:05:09 10° S 18:10:19 64° WSW 18:15:32 10° NNW
Cosmos 2082 Rocket 4.2 18:08:09 10° N 18:09:22 14° N 18:09:22 14° N
Cosmos 1624 Rocket 3.8 18:10:18 10° SSW 18:15:32 90° WNW 18:15:39 86° NNE
Cosmos 1417 Rocket 4.3 18:17:23 10° N 18:23:43 75° E 18:24:06 73° ESE
SL-08 R/B 3.8 18:25:44 55° NW 18:26:05 56° WNW 18:30:37 10° SSW
RESURS DK-1 4.1 18:29:49 10° NW 18:31:56 28° NW 18:31:56 28° NW
BREEZE-M DEB 4.5 18:28:39 10° WSW 18:48:49 74° SSE 18:49:09 73° SE
ATLAS 2AS CENTAUR R/B 3.3 18:48:23 10° NW 18:54:59 50° WSW 18:56:38 42° SSW
COSMOS 2455 4.3 19:07:22 10° SW 19:10:14 30° SW 19:10:14 30° SW
Lacrosse 5 3.7 19:08:30 10° WSW 19:10:56 27° W 19:10:56 27° W
USA 234 3.9 19:24:56 49° NW 19:24:56 49° NW 19:30:04 10° W
